Multibeam Report for MGL1306


Ship Name: Marcus G. Langseth
Chief Scientist: None
Source Organization: Rolling Deck to Repository
Start Date: 2013-05-22
End Date: 2013-05-28


View ISO Metadata

Visit the full NCEI Bathymetry Viewer


Multibeam Bathymetry

Cruise Details

Project: Transit
Instrument: Kongsberg EM122

Data Quality

Number of Files: 255
Number of Records: 74916
BATHYMETRY DATA Quantity Percentage
Number of Beams 32363712 100%
Number of Good Beams 30578449 94.48%
Number of Zero Beams 0 0%
Number of Flagged Beams 1785263 5.52%
AMPLITUDE DATA Quantity Percentage
Number of Beams 32363712 100%
Number of Good Beams 30578449 94.48%
Number of Zero Beams 0 0%
Number of Flagged Beams 1785263 5.52%
SIDESCAN DATA Quantity Percentage
Number of Pixels 76713984 100%
Number of Good Pixels 68305589 89.04%
Number of Zero Pixels 0 0%
Number of Flagged Pixels 8408395 10.96%

Navigation Totals

Total Time: 123.8844 hours
Total Track Length: 1545.6278 km
Average Speed: 12.476 km/hr (6.7365 knots)

Cruise Bounds

Northern Extent: 42.637295
Southern Extent: 37.624973
Western Extent: -25.619413
Eastern Extent: -9.157415

Limits

Minimum Sonar Depth 3.7957 Maximum Sonar Depth 8.5634
Minimum Altitude 142.9511 Maximum Altitude 6199.2969
Minimum Depth 144.5303 Maximum Depth 6408.2827
Minimum Amplitude 0 Maximum Amplitude 10.5
Minimum Sidescan 0 Maximum Sidescan 19.71

File Information

Full Resolution Bathymetry as collected (raw): 252

Files File Size Description
0098_20130522_083833_Langseth.all.mb58.gz 79.40MB Kongsberg multibeam vendor format
0099_20130522_090834_Langseth.all.mb58.gz 55.95MB Kongsberg multibeam vendor format
0100_20130522_093835_Langseth.all.mb58.gz 38.29MB Kongsberg multibeam vendor format
0101_20130522_100833_Langseth.all.mb58.gz 35.66MB Kongsberg multibeam vendor format
0102_20130522_103834_Langseth.all.mb58.gz 34.24MB Kongsberg multibeam vendor format
0103_20130522_110833_Langseth.all.mb58.gz 29.57MB Kongsberg multibeam vendor format
0104_20130522_113842_Langseth.all.mb58.gz 17.61MB Kongsberg multibeam vendor format
0105_20130522_120838_Langseth.all.mb58.gz 21.57MB Kongsberg multibeam vendor format
0106_20130522_123839_Langseth.all.mb58.gz 30.42MB Kongsberg multibeam vendor format
0107_20130522_130835_Langseth.all.mb58.gz 33.49MB Kongsberg multibeam vendor format
0108_20130522_133835_Langseth.all.mb58.gz 28.45MB Kongsberg multibeam vendor format
0109_20130522_140840_Langseth.all.mb58.gz 19.15MB Kongsberg multibeam vendor format
0110_20130522_143841_Langseth.all.mb58.gz 18.05MB Kongsberg multibeam vendor format
0111_20130522_150841_Langseth.all.mb58.gz 17.62MB Kongsberg multibeam vendor format
0112_20130522_153842_Langseth.all.mb58.gz 16.95MB Kongsberg multibeam vendor format
0113_20130522_160833_Langseth.all.mb58.gz 16.83MB Kongsberg multibeam vendor format
0114_20130522_163837_Langseth.all.mb58.gz 16.43MB Kongsberg multibeam vendor format
0115_20130522_170833_Langseth.all.mb58.gz 16.40MB Kongsberg multibeam vendor format
0116_20130522_173841_Langseth.all.mb58.gz 16.33MB Kongsberg multibeam vendor format
0117_20130522_180843_Langseth.all.mb58.gz 16.22MB Kongsberg multibeam vendor format
0118_20130522_183837_Langseth.all.mb58.gz 16.06MB Kongsberg multibeam vendor format
0119_20130522_190845_Langseth.all.mb58.gz 15.51MB Kongsberg multibeam vendor format
0120_20130522_193836_Langseth.all.mb58.gz 15.77MB Kongsberg multibeam vendor format
0121_20130522_200844_Langseth.all.mb58.gz 15.51MB Kongsberg multibeam vendor format
0122_20130522_203836_Langseth.all.mb58.gz 15.53MB Kongsberg multibeam vendor format
0123_20130522_210833_Langseth.all.mb58.gz 15.60MB Kongsberg multibeam vendor format
0124_20130522_213834_Langseth.all.mb58.gz 15.37MB Kongsberg multibeam vendor format
0125_20130522_220843_Langseth.all.mb58.gz 15.31MB Kongsberg multibeam vendor format
0126_20130522_223837_Langseth.all.mb58.gz 15.18MB Kongsberg multibeam vendor format
0127_20130522_230838_Langseth.all.mb58.gz 15.15MB Kongsberg multibeam vendor format
0128_20130522_233843_Langseth.all.mb58.gz 15.10MB Kongsberg multibeam vendor format
0129_20130523_000843_Langseth.all.mb58.gz 14.94MB Kongsberg multibeam vendor format
0130_20130523_003835_Langseth.all.mb58.gz 15.17MB Kongsberg multibeam vendor format
0131_20130523_010846_Langseth.all.mb58.gz 15.02MB Kongsberg multibeam vendor format
0132_20130523_013834_Langseth.all.mb58.gz 15.02MB Kongsberg multibeam vendor format
0133_20130523_020847_Langseth.all.mb58.gz 15.06MB Kongsberg multibeam vendor format
0134_20130523_023841_Langseth.all.mb58.gz 14.88MB Kongsberg multibeam vendor format
0135_20130523_030848_Langseth.all.mb58.gz 14.74MB Kongsberg multibeam vendor format
0136_20130523_033836_Langseth.all.mb58.gz 14.89MB Kongsberg multibeam vendor format
0137_20130523_040837_Langseth.all.mb58.gz 14.42MB Kongsberg multibeam vendor format
0138_20130523_043833_Langseth.all.mb58.gz 14.73MB Kongsberg multibeam vendor format
0139_20130523_050845_Langseth.all.mb58.gz 14.49MB Kongsberg multibeam vendor format
0140_20130523_053841_Langseth.all.mb58.gz 14.21MB Kongsberg multibeam vendor format
0141_20130523_060846_Langseth.all.mb58.gz 14.23MB Kongsberg multibeam vendor format
0142_20130523_063849_Langseth.all.mb58.gz 14.01MB Kongsberg multibeam vendor format
0143_20130523_070843_Langseth.all.mb58.gz 13.94MB Kongsberg multibeam vendor format
0144_20130523_073843_Langseth.all.mb58.gz 13.92MB Kongsberg multibeam vendor format
0145_20130523_080846_Langseth.all.mb58.gz 13.88MB Kongsberg multibeam vendor format
0146_20130523_083838_Langseth.all.mb58.gz 0.90MB Kongsberg multibeam vendor format
0179_20130524_010838_Langseth.all.mb58.gz 13.58MB Kongsberg multibeam vendor format
0180_20130524_013836_Langseth.all.mb58.gz 13.83MB Kongsberg multibeam vendor format
0182_20130524_023835_Langseth.all.mb58.gz 13.95MB Kongsberg multibeam vendor format
0183_20130524_030843_Langseth.all.mb58.gz 13.98MB Kongsberg multibeam vendor format
0185_20130524_040839_Langseth.all.mb58.gz 13.38MB Kongsberg multibeam vendor format
0186_20130524_043835_Langseth.all.mb58.gz 14.06MB Kongsberg multibeam vendor format
0187_20130524_050829_Langseth.all.mb58.gz 13.79MB Kongsberg multibeam vendor format
0188_20130524_053836_Langseth.all.mb58.gz 13.74MB Kongsberg multibeam vendor format
0189_20130524_060829_Langseth.all.mb58.gz 13.98MB Kongsberg multibeam vendor format
0190_20130524_063834_Langseth.all.mb58.gz 14.08MB Kongsberg multibeam vendor format
0191_20130524_070841_Langseth.all.mb58.gz 13.65MB Kongsberg multibeam vendor format
0192_20130524_073830_Langseth.all.mb58.gz 13.92MB Kongsberg multibeam vendor format
0194_20130524_084429_Langseth.all.mb58.gz 13.67MB Kongsberg multibeam vendor format
0195_20130524_091425_Langseth.all.mb58.gz 14.09MB Kongsberg multibeam vendor format
0196_20130524_094415_Langseth.all.mb58.gz 14.21MB Kongsberg multibeam vendor format
0197_20130524_101423_Langseth.all.mb58.gz 14.40MB Kongsberg multibeam vendor format
0199_20130524_111422_Langseth.all.mb58.gz 14.06MB Kongsberg multibeam vendor format
0200_20130524_114425_Langseth.all.mb58.gz 13.74MB Kongsberg multibeam vendor format
0201_20130524_121425_Langseth.all.mb58.gz 14.07MB Kongsberg multibeam vendor format
0202_20130524_124428_Langseth.all.mb58.gz 14.09MB Kongsberg multibeam vendor format
0203_20130524_131425_Langseth.all.mb58.gz 14.30MB Kongsberg multibeam vendor format
0204_20130524_134426_Langseth.all.mb58.gz 14.42MB Kongsberg multibeam vendor format
0205_20130524_141422_Langseth.all.mb58.gz 14.37MB Kongsberg multibeam vendor format
0206_20130524_144427_Langseth.all.mb58.gz 14.80MB Kongsberg multibeam vendor format
0207_20130524_151431_Langseth.all.mb58.gz 13.65MB Kongsberg multibeam vendor format
0209_20130524_161432_Langseth.all.mb58.gz 13.80MB Kongsberg multibeam vendor format
0210_20130524_164424_Langseth.all.mb58.gz 13.81MB Kongsberg multibeam vendor format
0211_20130524_171426_Langseth.all.mb58.gz 13.82MB Kongsberg multibeam vendor format
0212_20130524_174429_Langseth.all.mb58.gz 13.83MB Kongsberg multibeam vendor format
0213_20130524_181431_Langseth.all.mb58.gz 13.65MB Kongsberg multibeam vendor format
0214_20130524_184415_Langseth.all.mb58.gz 13.84MB Kongsberg multibeam vendor format
0215_20130524_191418_Langseth.all.mb58.gz 13.81MB Kongsberg multibeam vendor format
0216_20130524_194419_Langseth.all.mb58.gz 13.82MB Kongsberg multibeam vendor format
0217_20130524_201419_Langseth.all.mb58.gz 13.83MB Kongsberg multibeam vendor format
0218_20130524_204421_Langseth.all.mb58.gz 13.71MB Kongsberg multibeam vendor format
0221_20130524_221429_Langseth.all.mb58.gz 13.82MB Kongsberg multibeam vendor format
0223_20130524_231426_Langseth.all.mb58.gz 13.76MB Kongsberg multibeam vendor format
0224_20130524_234417_Langseth.all.mb58.gz 13.90MB Kongsberg multibeam vendor format
0225_20130525_001426_Langseth.all.mb58.gz 13.84MB Kongsberg multibeam vendor format
0226_20130525_004427_Langseth.all.mb58.gz 13.75MB Kongsberg multibeam vendor format
0227_20130525_011418_Langseth.all.mb58.gz 13.78MB Kongsberg multibeam vendor format
0228_20130525_014416_Langseth.all.mb58.gz 14.11MB Kongsberg multibeam vendor format
0229_20130525_021427_Langseth.all.mb58.gz 14.18MB Kongsberg multibeam vendor format
0230_20130525_024429_Langseth.all.mb58.gz 14.04MB Kongsberg multibeam vendor format
0231_20130525_031425_Langseth.all.mb58.gz 13.94MB Kongsberg multibeam vendor format
0232_20130525_034416_Langseth.all.mb58.gz 14.09MB Kongsberg multibeam vendor format
0233_20130525_041431_Langseth.all.mb58.gz 13.88MB Kongsberg multibeam vendor format
0234_20130525_044420_Langseth.all.mb58.gz 13.95MB Kongsberg multibeam vendor format
0235_20130525_051426_Langseth.all.mb58.gz 13.88MB Kongsberg multibeam vendor format
0236_20130525_054423_Langseth.all.mb58.gz 13.91MB Kongsberg multibeam vendor format
0237_20130525_061426_Langseth.all.mb58.gz 14.01MB Kongsberg multibeam vendor format
0238_20130525_064431_Langseth.all.mb58.gz 13.81MB Kongsberg multibeam vendor format
0239_20130525_071415_Langseth.all.mb58.gz 14.10MB Kongsberg multibeam vendor format
0240_20130525_074429_Langseth.all.mb58.gz 13.90MB Kongsberg multibeam vendor format
0241_20130525_081428_Langseth.all.mb58.gz 13.96MB Kongsberg multibeam vendor format
0242_20130525_084431_Langseth.all.mb58.gz 13.91MB Kongsberg multibeam vendor format
0243_20130525_091428_Langseth.all.mb58.gz 13.93MB Kongsberg multibeam vendor format
0244_20130525_094428_Langseth.all.mb58.gz 13.95MB Kongsberg multibeam vendor format
0245_20130525_101419_Langseth.all.mb58.gz 14.05MB Kongsberg multibeam vendor format
0246_20130525_104419_Langseth.all.mb58.gz 14.03MB Kongsberg multibeam vendor format
0247_20130525_111417_Langseth.all.mb58.gz 13.97MB Kongsberg multibeam vendor format
0248_20130525_114426_Langseth.all.mb58.gz 13.90MB Kongsberg multibeam vendor format
0249_20130525_121423_Langseth.all.mb58.gz 13.88MB Kongsberg multibeam vendor format
0250_20130525_124420_Langseth.all.mb58.gz 13.90MB Kongsberg multibeam vendor format
0251_20130525_131416_Langseth.all.mb58.gz 14.07MB Kongsberg multibeam vendor format
0252_20130525_134432_Langseth.all.mb58.gz 13.99MB Kongsberg multibeam vendor format
0253_20130525_141429_Langseth.all.mb58.gz 13.97MB Kongsberg multibeam vendor format
0254_20130525_144431_Langseth.all.mb58.gz 13.87MB Kongsberg multibeam vendor format
0255_20130525_151421_Langseth.all.mb58.gz 13.96MB Kongsberg multibeam vendor format
0256_20130525_154422_Langseth.all.mb58.gz 14.02MB Kongsberg multibeam vendor format
0257_20130525_161427_Langseth.all.mb58.gz 13.99MB Kongsberg multibeam vendor format
0258_20130525_164432_Langseth.all.mb58.gz 13.98MB Kongsberg multibeam vendor format
0259_20130525_171425_Langseth.all.mb58.gz 14.01MB Kongsberg multibeam vendor format
0260_20130525_174422_Langseth.all.mb58.gz 14.14MB Kongsberg multibeam vendor format
0261_20130525_181431_Langseth.all.mb58.gz 13.79MB Kongsberg multibeam vendor format
0262_20130525_184431_Langseth.all.mb58.gz 13.71MB Kongsberg multibeam vendor format
0263_20130525_191419_Langseth.all.mb58.gz 13.68MB Kongsberg multibeam vendor format
0264_20130525_194418_Langseth.all.mb58.gz 13.67MB Kongsberg multibeam vendor format
0265_20130525_201423_Langseth.all.mb58.gz 13.60MB Kongsberg multibeam vendor format
0266_20130525_204418_Langseth.all.mb58.gz 13.71MB Kongsberg multibeam vendor format
0267_20130525_211430_Langseth.all.mb58.gz 13.77MB Kongsberg multibeam vendor format
0268_20130525_214432_Langseth.all.mb58.gz 13.75MB Kongsberg multibeam vendor format
0269_20130525_221418_Langseth.all.mb58.gz 13.96MB Kongsberg multibeam vendor format
0270_20130525_224417_Langseth.all.mb58.gz 14.00MB Kongsberg multibeam vendor format
0271_20130525_231417_Langseth.all.mb58.gz 14.14MB Kongsberg multibeam vendor format
0272_20130525_234430_Langseth.all.mb58.gz 13.90MB Kongsberg multibeam vendor format
0273_20130526_001427_Langseth.all.mb58.gz 13.93MB Kongsberg multibeam vendor format
0274_20130526_004432_Langseth.all.mb58.gz 13.93MB Kongsberg multibeam vendor format
0275_20130526_011431_Langseth.all.mb58.gz 14.01MB Kongsberg multibeam vendor format
0276_20130526_014428_Langseth.all.mb58.gz 13.85MB Kongsberg multibeam vendor format
0277_20130526_021416_Langseth.all.mb58.gz 13.90MB Kongsberg multibeam vendor format
0278_20130526_024416_Langseth.all.mb58.gz 13.98MB Kongsberg multibeam vendor format
0279_20130526_031425_Langseth.all.mb58.gz 13.87MB Kongsberg multibeam vendor format
0280_20130526_034415_Langseth.all.mb58.gz 14.11MB Kongsberg multibeam vendor format
0281_20130526_041432_Langseth.all.mb58.gz 13.95MB Kongsberg multibeam vendor format
0282_20130526_044428_Langseth.all.mb58.gz 13.86MB Kongsberg multibeam vendor format
0283_20130526_051416_Langseth.all.mb58.gz 13.85MB Kongsberg multibeam vendor format
0284_20130526_054418_Langseth.all.mb58.gz 13.96MB Kongsberg multibeam vendor format
0285_20130526_061427_Langseth.all.mb58.gz 13.93MB Kongsberg multibeam vendor format
0286_20130526_064424_Langseth.all.mb58.gz 13.85MB Kongsberg multibeam vendor format
0287_20130526_071415_Langseth.all.mb58.gz 14.12MB Kongsberg multibeam vendor format
0288_20130526_074430_Langseth.all.mb58.gz 13.95MB Kongsberg multibeam vendor format
0289_20130526_081430_Langseth.all.mb58.gz 13.98MB Kongsberg multibeam vendor format
0290_20130526_084427_Langseth.all.mb58.gz 13.98MB Kongsberg multibeam vendor format
0291_20130526_091429_Langseth.all.mb58.gz 13.96MB Kongsberg multibeam vendor format
0292_20130526_094425_Langseth.all.mb58.gz 13.82MB Kongsberg multibeam vendor format
0293_20130526_101418_Langseth.all.mb58.gz 14.03MB Kongsberg multibeam vendor format
0294_20130526_104431_Langseth.all.mb58.gz 13.82MB Kongsberg multibeam vendor format
0295_20130526_111421_Langseth.all.mb58.gz 13.88MB Kongsberg multibeam vendor format
0296_20130526_114420_Langseth.all.mb58.gz 13.86MB Kongsberg multibeam vendor format
0297_20130526_121420_Langseth.all.mb58.gz 13.89MB Kongsberg multibeam vendor format
0298_20130526_124428_Langseth.all.mb58.gz 13.88MB Kongsberg multibeam vendor format
0299_20130526_131416_Langseth.all.mb58.gz 13.90MB Kongsberg multibeam vendor format
0300_20130526_134419_Langseth.all.mb58.gz 13.95MB Kongsberg multibeam vendor format
0301_20130526_141430_Langseth.all.mb58.gz 13.79MB Kongsberg multibeam vendor format
0302_20130526_144429_Langseth.all.mb58.gz 13.75MB Kongsberg multibeam vendor format
0303_20130526_151421_Langseth.all.mb58.gz 13.95MB Kongsberg multibeam vendor format
0304_20130526_154429_Langseth.all.mb58.gz 13.75MB Kongsberg multibeam vendor format
0305_20130526_161421_Langseth.all.mb58.gz 14.07MB Kongsberg multibeam vendor format
0306_20130526_164432_Langseth.all.mb58.gz 13.95MB Kongsberg multibeam vendor format
0307_20130526_171425_Langseth.all.mb58.gz 13.94MB Kongsberg multibeam vendor format
0308_20130526_174421_Langseth.all.mb58.gz 14.28MB Kongsberg multibeam vendor format
0309_20130526_181423_Langseth.all.mb58.gz 14.13MB Kongsberg multibeam vendor format
0310_20130526_184423_Langseth.all.mb58.gz 13.79MB Kongsberg multibeam vendor format
0311_20130526_191431_Langseth.all.mb58.gz 13.56MB Kongsberg multibeam vendor format
0312_20130526_194423_Langseth.all.mb58.gz 13.70MB Kongsberg multibeam vendor format
0313_20130526_201426_Langseth.all.mb58.gz 13.60MB Kongsberg multibeam vendor format
0314_20130526_204421_Langseth.all.mb58.gz 13.85MB Kongsberg multibeam vendor format
0315_20130526_211428_Langseth.all.mb58.gz 14.16MB Kongsberg multibeam vendor format
0316_20130526_214427_Langseth.all.mb58.gz 14.13MB Kongsberg multibeam vendor format
0317_20130526_221419_Langseth.all.mb58.gz 14.09MB Kongsberg multibeam vendor format
0318_20130526_224415_Langseth.all.mb58.gz 14.05MB Kongsberg multibeam vendor format
0319_20130526_231420_Langseth.all.mb58.gz 14.10MB Kongsberg multibeam vendor format
0320_20130526_234416_Langseth.all.mb58.gz 14.02MB Kongsberg multibeam vendor format
0321_20130527_001414_Langseth.all.mb58.gz 14.05MB Kongsberg multibeam vendor format
0322_20130527_004416_Langseth.all.mb58.gz 14.16MB Kongsberg multibeam vendor format
0323_20130527_011426_Langseth.all.mb58.gz 14.01MB Kongsberg multibeam vendor format
0324_20130527_014421_Langseth.all.mb58.gz 14.04MB Kongsberg multibeam vendor format
0325_20130527_021419_Langseth.all.mb58.gz 14.01MB Kongsberg multibeam vendor format
0326_20130527_024422_Langseth.all.mb58.gz 14.02MB Kongsberg multibeam vendor format
0327_20130527_031421_Langseth.all.mb58.gz 13.98MB Kongsberg multibeam vendor format
0328_20130527_034415_Langseth.all.mb58.gz 13.85MB Kongsberg multibeam vendor format
0329_20130527_041426_Langseth.all.mb58.gz 13.69MB Kongsberg multibeam vendor format
0330_20130527_044417_Langseth.all.mb58.gz 13.93MB Kongsberg multibeam vendor format
0331_20130527_051431_Langseth.all.mb58.gz 14.02MB Kongsberg multibeam vendor format
0332_20130527_054418_Langseth.all.mb58.gz 14.14MB Kongsberg multibeam vendor format
0333_20130527_061419_Langseth.all.mb58.gz 14.23MB Kongsberg multibeam vendor format
0334_20130527_064425_Langseth.all.mb58.gz 13.95MB Kongsberg multibeam vendor format
0335_20130527_071422_Langseth.all.mb58.gz 13.98MB Kongsberg multibeam vendor format
0336_20130527_074424_Langseth.all.mb58.gz 13.57MB Kongsberg multibeam vendor format
0337_20130527_081424_Langseth.all.mb58.gz 14.01MB Kongsberg multibeam vendor format
0338_20130527_084428_Langseth.all.mb58.gz 13.95MB Kongsberg multibeam vendor format
0339_20130527_091425_Langseth.all.mb58.gz 14.00MB Kongsberg multibeam vendor format
0340_20130527_094421_Langseth.all.mb58.gz 14.06MB Kongsberg multibeam vendor format
0341_20130527_101419_Langseth.all.mb58.gz 13.98MB Kongsberg multibeam vendor format
0342_20130527_104422_Langseth.all.mb58.gz 14.04MB Kongsberg multibeam vendor format
0343_20130527_111427_Langseth.all.mb58.gz 13.84MB Kongsberg multibeam vendor format
0344_20130527_114421_Langseth.all.mb58.gz 13.92MB Kongsberg multibeam vendor format
0345_20130527_121421_Langseth.all.mb58.gz 13.80MB Kongsberg multibeam vendor format
0346_20130527_124423_Langseth.all.mb58.gz 13.86MB Kongsberg multibeam vendor format
0347_20130527_131428_Langseth.all.mb58.gz 13.76MB Kongsberg multibeam vendor format
0348_20130527_134422_Langseth.all.mb58.gz 13.90MB Kongsberg multibeam vendor format
0349_20130527_141419_Langseth.all.mb58.gz 14.04MB Kongsberg multibeam vendor format
0350_20130527_144431_Langseth.all.mb58.gz 14.00MB Kongsberg multibeam vendor format
0351_20130527_151425_Langseth.all.mb58.gz 13.95MB Kongsberg multibeam vendor format
0352_20130527_154419_Langseth.all.mb58.gz 13.87MB Kongsberg multibeam vendor format
0353_20130527_161423_Langseth.all.mb58.gz 13.77MB Kongsberg multibeam vendor format
0354_20130527_164416_Langseth.all.mb58.gz 13.83MB Kongsberg multibeam vendor format
0355_20130527_171416_Langseth.all.mb58.gz 13.80MB Kongsberg multibeam vendor format
0356_20130527_174418_Langseth.all.mb58.gz 13.87MB Kongsberg multibeam vendor format
0357_20130527_181421_Langseth.all.mb58.gz 13.81MB Kongsberg multibeam vendor format
0358_20130527_184429_Langseth.all.mb58.gz 13.68MB Kongsberg multibeam vendor format
0359_20130527_191418_Langseth.all.mb58.gz 13.69MB Kongsberg multibeam vendor format
0360_20130527_194423_Langseth.all.mb58.gz 13.85MB Kongsberg multibeam vendor format
0361_20130527_201421_Langseth.all.mb58.gz 14.02MB Kongsberg multibeam vendor format
0362_20130527_204424_Langseth.all.mb58.gz 15.10MB Kongsberg multibeam vendor format
0363_20130527_211420_Langseth.all.mb58.gz 15.91MB Kongsberg multibeam vendor format
0364_20130527_214425_Langseth.all.mb58.gz 15.62MB Kongsberg multibeam vendor format
0365_20130527_221414_Langseth.all.mb58.gz 17.65MB Kongsberg multibeam vendor format
0366_20130527_224415_Langseth.all.mb58.gz 27.87MB Kongsberg multibeam vendor format
0367_20130527_231415_Langseth.all.mb58.gz 27.65MB Kongsberg multibeam vendor format
0368_20130527_234421_Langseth.all.mb58.gz 27.44MB Kongsberg multibeam vendor format
0369_20130528_001420_Langseth.all.mb58.gz 27.23MB Kongsberg multibeam vendor format
0370_20130528_004415_Langseth.all.mb58.gz 27.22MB Kongsberg multibeam vendor format
0371_20130528_011416_Langseth.all.mb58.gz 23.16MB Kongsberg multibeam vendor format
0372_20130528_014418_Langseth.all.mb58.gz 18.49MB Kongsberg multibeam vendor format
0373_20130528_021420_Langseth.all.mb58.gz 25.50MB Kongsberg multibeam vendor format
0374_20130528_024417_Langseth.all.mb58.gz 23.94MB Kongsberg multibeam vendor format
0375_20130528_031420_Langseth.all.mb58.gz 18.17MB Kongsberg multibeam vendor format
0376_20130528_034423_Langseth.all.mb58.gz 18.16MB Kongsberg multibeam vendor format
0377_20130528_041422_Langseth.all.mb58.gz 18.18MB Kongsberg multibeam vendor format
0378_20130528_044415_Langseth.all.mb58.gz 18.30MB Kongsberg multibeam vendor format
0379_20130528_051417_Langseth.all.mb58.gz 18.35MB Kongsberg multibeam vendor format
0380_20130528_054415_Langseth.all.mb58.gz 18.66MB Kongsberg multibeam vendor format
0381_20130528_061422_Langseth.all.mb58.gz 19.84MB Kongsberg multibeam vendor format
0382_20130528_064415_Langseth.all.mb58.gz 27.68MB Kongsberg multibeam vendor format
0383_20130528_071418_Langseth.all.mb58.gz 28.29MB Kongsberg multibeam vendor format
0384_20130528_074421_Langseth.all.mb58.gz 32.15MB Kongsberg multibeam vendor format
0385_20130528_081415_Langseth.all.mb58.gz 36.11MB Kongsberg multibeam vendor format
0386_20130528_084414_Langseth.all.mb58.gz 66.50MB Kongsberg multibeam vendor format
0387_20130528_091413_Langseth.all.mb58.gz 109.28MB Kongsberg multibeam vendor format
0388_20130528_094414_Langseth.all.mb58.gz 105.65MB Kongsberg multibeam vendor format
9999.all.mb58.gz 0.83MB Kongsberg multibeam vendor format

Metadata Files: 2

Files File Size Description
MGL1306_Multibeam.xml NGDC created ISO metadata
em122_bag_info.tar.gz 30.6KB Additional cruise information

Water Column Sonar Data

Water Column Sonar Data Available: WCSD Map Viewer